Location: Condor
(52.3263°N, 114.5541°W)
Time: 21:20:11
(UTC+00:00)

Oscar 19 - Pass Details

Date: 09 December 2023
Orbit: 771 x 789 km, 98.9° (Epoch: 04 March)

Event Time Altitude Azimuth Distance (km) Brightness Sun altitude
Rises 14:48:23 0° 5° (N) 3,276 13.6 -6.9°
Reaches altitude 10° 14:51:59 10° 339° (NNW) 2,347 12.7 -6.4°
Maximum altitude 14:54:14 13° 313° (NW) 2,145 12.3 -6.1°
Drops below altitude 10° 14:56:29 10° 287° (WNW) 2,347 12.5 -5.8°
Sets 15:00:05 0° 261° (W) 3,275 13.4 -5.3°
